User: anonymous   Login
Location: Unspecified
(0.0000°N, 0.0000°E)
Time: 09:57:43
(UTC+00:00)
Language:

RESURS DK-1 - Orbit

View from above orbital plane
View from above orbital plane
View from above satellite
View from above satellite

Ground track
Ground track

The orbit data is extracted from the following two-line orbital elements,

1 29228U 06021A   16240.16450270  .00000124  00000-0  16871-4 0  9994
2 29228  69.9357 126.0363 0002007  43.0590 317.0727 15.01965888563951
Epoch (UTC): 27 August 2016 03:56:53
Eccentricity: 0.0002007
inclination: 69.9357°
perigee height: 559 km
apogee height: 562 km
right ascension of ascending node: 126.0363°
argument of perigee: 43.0590°
revolutions per day: 15.01965888
mean anomaly at epoch: 317.0727°
orbit number at epoch: 56395

The dashed part of the orbit path shows where the satellite is in the earth's shadow,  

DLR